OH5GWF-1 Weather Reports


Display with metric or nautical units.
time (UTC)temp
F
wind
direction
speed
MPH
gust
MPH
rain 1hr
in
rain 24hr
in
rain mn
in
humidity
%
barometer
mb
20260507105204 57 250 0.0 2.0 0.00 0.00 0.00 33 1015.5
20260507104503 56 248 0.0 1.0 0.00 0.00 0.00 33 1015.6
20260507103801 59 248 0.0 2.0 0.00 0.00 0.00 32 1015.5
20260507103111 62 354 3.0 5.0 0.00 0.00 0.00 32 1015.5
20260507102409 60 304 2.0 7.0 0.00 0.00 0.00 33 1015.6
20260507101705 58 279 3.0 5.0 0.00 0.00 0.00 34 1015.7
20260507101003 57 248 1.0 3.0 0.00 0.00 0.00 33 1015.7
20260507100302 58 248 2.0 3.0 0.00 0.00 0.00 32 1015.6
20260507095612 60 249 1.0 1.0 0.00 0.00 0.00 32 1015.7
20260507094910 61 248 2.0 3.0 0.00 0.00 0.00 31 1015.7
20260507094208 64 243 2.0 3.0 0.00 0.00 0.00 30 1015.7
20260507093507 64 286 2.0 5.0 0.00 0.00 0.00 30 1015.7
20260507092804 63 248 3.0 5.0 0.00 0.00 0.00 31 1015.8
20260507092101 62 248 2.0 2.0 0.00 0.00 0.00 29 1015.9
20260507091412 63 238 2.0 3.0 0.00 0.00 0.00 29 1015.7
20260507090708 65 284 3.0 8.0 0.00 0.00 0.00 30 1015.8
20260507090007 65 343 1.0 3.0 0.00 0.00 0.00 30 1016.1
20260507085306 65 255 2.0 5.0 0.00 0.00 0.00 30 1016.0
20260507084603 66 298 3.0 3.0 0.00 0.00 0.00 28 1016.1
20260507083902 66 248 1.0 5.0 0.00 0.00 0.00 30 1016.1
20260507083211 63 276 2.0 5.0 0.00 0.00 0.00 31 1016.2
20260507082509 63 255 3.0 7.0 0.00 0.00 0.00 28 1016.1
20260507081807 64 248 1.0 3.0 0.00 0.00 0.00 31 1016.2
20260507081106 61 287 2.0 3.0 0.00 0.00 0.00 29 1016.3
20260507080405 62 262 1.0 2.0 0.00 0.00 0.00 31 1016.4
20260507075703 64 333 2.0 3.0 0.00 0.00 0.00 31 1016.2
20260507075012 65 288 2.0 3.0 0.00 0.00 0.00 32 1016.2
20260507074310 65 340 2.0 3.0 0.00 0.00 0.00 32 1016.2
20260507073607 64 347 1.0 1.0 0.00 0.00 0.00 32 1016.4
20260507072905 64 309 3.0 5.0 0.00 0.00 0.00 33 1016.2
20260507072202 64 255 1.0 2.0 0.00 0.00 0.00 33 1016.2
20260507071512 66 311 6.0 6.0 0.00 0.00 0.00 32 1016.2
20260507070810 63 248 2.0 3.0 0.00 0.00 0.00 34 1016.3
20260507070108 63 242 1.0 2.0 0.00 0.00 0.00 36 1016.3
20260507065406 63 0 1.0 3.0 0.00 0.00 0.00 36 1016.2
20260507064704 63 266 3.0 3.0 0.00 0.00 0.00 36 1016.2
20260507064003 61 283 2.0 3.0 0.00 0.00 0.00 38 1016.2
20260507063312 60 246 1.0 5.0 0.00 0.00 0.00 41 1016.3
20260507062609 56 249 2.0 5.0 0.00 0.00 0.00 41 1016.3
20260507061907 55 248 2.0 3.0 0.00 0.00 0.00 43 1016.3
20260507061205 53 253 2.0 5.0 0.00 0.00 0.00 46 1016.3
20260507060503 51 257 3.0 5.0 0.00 0.00 0.00 45 1016.3
20260507055801 51 299 2.0 3.0 0.00 0.00 0.00 48 1016.3
20260507055110 50 280 1.0 3.0 0.00 0.00 0.00 49 1016.3
20260507054410 49 248 2.0 2.0 0.00 0.00 0.00 51 1016.3
20260507053708 48 257 2.0 3.0 0.00 0.00 0.00 51 1016.3
20260507053007 47 270 2.0 3.0 0.00 0.00 0.00 51 1016.2
20260507052306 48 309 2.0 3.0 0.00 0.00 0.00 53 1016.3
20260507051602 47 248 1.0 1.0 0.00 0.00 0.00 53 1016.2
20260507050912 47 248 2.0 2.0 0.00 0.00 0.00 55 1016.2
20260507050211 46 248 1.0 1.0 0.00 0.00 0.00 58 1016.2
20260507045510 45 248 1.0 2.0 0.00 0.00 0.00 63 1016.2
20260507044809 44 248 0.0 1.0 0.00 0.00 0.00 66 1016.2
20260507044106 42 248 0.0 0.0 0.00 0.00 0.00 67 1016.2
20260507043404 41 248 0.0 1.0 0.00 0.00 0.00 67 1016.2
20260507042702 41 248 0.0 1.0 0.00 0.00 0.00 68 1016.2
20260507042011 41 248 0.0 1.0 0.00 0.00 0.00 70 1016.2
20260507041309 40 248 0.0 0.0 0.00 0.00 0.00 72 1016.2
20260507040605 39 248 0.0 0.0 0.00 0.00 0.00 73 1016.3
20260507035903 38 248 0.0 1.0 0.00 0.00 0.00 74 1016.4
20260507035213 37 248 0.0 1.0 0.00 0.00 0.00 75 1016.4
20260507034511 36 248 0.0 2.0 0.00 0.00 0.00 76 1016.3
20260507033809 35 248 0.0 0.0 0.00 0.00 0.00 77 1016.2
20260507033106 34 248 0.0 0.0 0.00 0.00 0.00 79 1016.2
20260507032405 32 248 0.0 2.0 0.00 0.00 0.00 79 1016.2
20260507031704 31 248 0.0 1.0 0.00 0.00 0.00 79 1016.1
20260507031002 30 248 0.0 0.0 0.00 0.00 0.00 79 1016.0
20260507030312 29 248 0.0 0.0 0.00 0.00 0.00 79 1016.0
20260507025610 29 248 0.0 0.0 0.00 0.00 0.00 78 1015.9
20260507024909 29 248 0.0 0.0 0.00 0.00 0.00 78 1015.9
20260507024208 29 248 0.0 0.0 0.00 0.00 0.00 78 1015.8
20260507023506 29 248 0.0 0.0 0.00 0.00 0.00 77 1015.8
20260507022804 28 248 0.0 0.0 0.00 0.00 0.00 77 1015.8
20260507022102 28 248 0.0 0.0 0.00 0.00 0.00 77 1015.9
20260507021412 28 248 0.0 0.0 0.00 0.00 0.00 77 1015.9
20260507020710 28 248 0.0 0.0 0.00 0.00 0.00 76 1015.9
20260507020009 29 248 0.0 0.0 0.00 0.00 0.00 76 1015.8
20260507015306 29 248 0.0 0.0 0.00 0.00 0.00 76 1015.8
20260507014604 29 248 0.0 0.0 0.00 0.00 0.00 76 1015.8
20260507013901 29 248 0.0 0.0 0.00 0.00 0.00 75 1015.8
20260507013211 29 248 0.0 0.0 0.00 0.00 0.00 75 1015.7
20260507012509 29 248 0.0 0.0 0.00 0.00 0.00 75 1015.8
20260507011807 29 248 0.0 0.0 0.00 0.00 0.00 75 1015.7
20260507011105 29 248 0.0 0.0 0.00 0.00 0.00 75 1015.7
20260507010403 29 248 0.0 0.0 0.00 0.00 0.00 75 1015.6
20260507005702 30 248 0.0 0.0 0.00 0.00 0.00 76 1015.7
20260507005011 30 248 0.0 0.0 0.00 0.00 0.00 77 1015.8
20260507004309 30 248 0.0 0.0 0.00 0.00 0.00 77 1015.7
20260507003606 30 248 0.0 1.0 0.00 0.00 0.00 77 1015.7
20260507002903 30 248 0.0 0.0 0.00 0.00 0.00 78 1015.8
20260507002201 30 248 0.0 0.0 0.00 0.00 0.00 79 1015.7
20260507001511 31 248 0.0 0.0 0.00 0.00 0.00 79 1015.6
20260507000808 30 248 0.0 0.0 0.00 0.00 0.00 81 1015.6
20260507000107 30 248 0.0 0.0 0.00 0.00 0.00 82 1015.5
20260506235405 30 248 0.0 0.0 0.00 0.00 0.00 83 1015.5
20260506234703 30 248 0.0 0.0 0.00 0.00 0.00 83 1015.5
20260506234013 31 248 0.0 0.0 0.00 0.00 0.00 83 1015.5
20260506233312 31 248 0.0 0.0 0.00 0.00 0.00 83 1015.4
20260506232610 31 248 0.0 0.0 0.00 0.00 0.00 83 1015.4
20260506231908 31 248 0.0 0.0 0.00 0.00 0.00 83 1015.4
20260506231206 31 248 0.0 1.0 0.00 0.00 0.00 82 1015.4
20260506230503 32 248 0.0 0.0 0.00 0.00 0.00 82 1015.3
20260506225803 32 248 0.0 0.0 0.00 0.00 0.00 82 1015.4
20260506225102 32 248 0.0 0.0 0.00 0.00 0.00 80 1015.4
20260506224413 32 248 0.0 0.0 0.00 0.00 0.00 79 1015.4
20260506223712 32 248 0.0 0.0 0.00 0.00 0.00 78 1015.5
20260506223010 33 248 0.0 0.0 0.00 0.00 0.00 77 1015.5
20260506222306 33 248 0.0 0.0 0.00 0.00 0.00 77 1015.4
20260506221605 33 248 0.0 0.0 0.00 0.00 0.00 77 1015.3
20260506220901 33 248 0.0 0.0 0.00 0.00 0.00 76 1015.2
20260506220211 34 248 0.0 0.0 0.00 0.00 0.00 74 1015.0
20260506215509 34 248 0.0 0.0 0.00 0.00 0.00 74 1015.0
20260506214807 33 248 0.0 0.0 0.00 0.00 0.00 72 1014.9
20260506214105 33 248 0.0 0.0 0.00 0.00 0.00 71 1014.8
20260506213401 33 248 0.0 0.0 0.00 0.00 0.00 69 1014.8
20260506212712 33 248 0.0 0.0 0.00 0.00 0.00 69 1014.8
20260506212009 33 248 0.0 0.0 0.00 0.00 0.00 69 1014.8
20260506211306 33 248 0.0 0.0 0.00 0.00 0.00 69 1014.7
20260506210604 33 248 0.0 0.0 0.00 0.00 0.00 69 1014.6
20260506205903 34 248 0.0 0.0 0.00 0.00 0.00 68 1014.6
20260506205202 34 248 0.0 0.0 0.00 0.00 0.00 68 1014.5
20260506204512 34 248 0.0 0.0 0.00 0.00 0.00 68 1014.6
20260506203811 34 248 0.0 0.0 0.00 0.00 0.00 66 1014.6
20260506203110 34 248 0.0 0.0 0.00 0.00 0.00 65 1014.5
20260506202408 34 248 0.0 0.0 0.00 0.00 0.00 63 1014.5
20260506201705 34 248 0.0 0.0 0.00 0.00 0.00 63 1014.6
20260506201003 34 248 0.0 0.0 0.00 0.00 0.00 62 1014.4
20260506200312 35 248 0.0 0.0 0.00 0.00 0.00 60 1014.3
20260506195611 35 248 0.0 0.0 0.00 0.00 0.00 60 1014.4
20260506194909 35 248 0.0 0.0 0.00 0.00 0.00 59 1014.2
20260506194208 36 248 0.0 0.0 0.00 0.00 0.00 59 1014.3
20260506193507 36 248 0.0 0.0 0.00 0.00 0.00 58 1014.1
20260506192806 36 248 0.0 0.0 0.00 0.00 0.00 57 1014.2
20260506192105 36 248 0.0 0.0 0.00 0.00 0.00 56 1014.2
20260506191404 37 248 0.0 0.0 0.00 0.00 0.00 54 1014.1
20260506190702 37 248 0.0 0.0 0.00 0.00 0.00 52 1014.1
20260506190001 37 248 0.0 0.0 0.00 0.00 0.00 50 1014.1
20260506185312 38 248 0.0 0.0 0.00 0.00 0.00 48 1014.1
20260506184610 38 248 0.0 0.0 0.00 0.00 0.00 47 1014.1
20260506183908 39 248 0.0 0.0 0.00 0.00 0.00 44 1014.0
20260506183205 39 248 0.0 0.0 0.00 0.00 0.00 42 1014.0
20260506182504 39 248 1.0 1.0 0.00 0.00 0.00 42 1014.0
20260506181802 40 248 0.0 0.0 0.00 0.00 0.00 40 1013.9
20260506181112 41 248 0.0 0.0 0.00 0.00 0.00 39 1013.9
20260506180411 42 248 0.0 0.0 0.00 0.00 0.00 39 1013.9
20260506175708 42 248 0.0 0.0 0.00 0.00 0.00 38 1013.7
20260506175006 43 248 0.0 0.0 0.00 0.00 0.00 38 1013.7
20260506174305 44 248 0.0 0.0 0.00 0.00 0.00 37 1013.7
20260506173604 45 248 0.0 0.0 0.00 0.00 0.00 37 1013.8
20260506172902 46 248 0.0 0.0 0.00 0.00 0.00 37 1013.7
20260506172210 46 248 1.0 1.0 0.00 0.00 0.00 36 1013.7
20260506171509 47 248 1.0 3.0 0.00 0.00 0.00 36 1013.7
20260506170807 47 248 1.0 2.0 0.00 0.00 0.00 36 1013.6
20260506170106 48 248 0.0 0.0 0.00 0.00 0.00 35 1013.5
20260506165404 48 248 0.0 1.0 0.00 0.00 0.00 35 1013.5
20260506164701 48 248 1.0 2.0 0.00 0.00 0.00 35 1013.3
20260506164011 48 248 1.0 3.0 0.00 0.00 0.00 33 1013.4
20260506163309 49 248 1.0 1.0 0.00 0.00 0.00 32 1013.3
20260506162606 49 248 1.0 2.0 0.00 0.00 0.00 32 1013.2
20260506161904 49 265 2.0 3.0 0.00 0.00 0.00 32 1013.2
20260506161202 50 258 1.0 1.0 0.00 0.00 0.00 32 1013.2
20260506160512 50 258 2.0 2.0 0.00 0.00 0.00 32 1013.1
20260506155810 50 325 1.0 2.0 0.00 0.00 0.00 32 1013.0
20260506155109 50 221 5.0 6.0 0.00 0.00 0.00 32 1013.0
20260506154407 50 248 1.0 3.0 0.00 0.00 0.00 32 1013.0
20260506153703 50 261 2.0 5.0 0.00 0.00 0.00 31 1013.1
20260506153001 50 282 5.0 6.0 0.00 0.00 0.00 31 1013.2
20260506152312 50 302 5.0 5.0 0.00 0.00 0.00 32 1013.2
20260506151609 50 248 1.0 2.0 0.00 0.00 0.00 32 1013.1
20260506150908 50 266 1.0 2.0 0.00 0.00 0.00 31 1013.1
20260506150206 51 342 3.0 5.0 0.00 0.00 0.00 30 1013.2
20260506145504 53 281 1.0 3.0 0.00 0.00 0.00 30 1013.1
20260506144802 56 304 5.0 10.0 0.00 0.00 0.00 28 1013.1
20260506144111 60 308 1.0 3.0 0.00 0.00 0.00 28 1013.1
20260506143409 57 305 2.0 2.0 0.00 0.00 0.00 28 1013.0
20260506142709 57 252 1.0 6.0 0.00 0.00 0.00 28 1013.1
20260506142005 59 238 1.0 2.0 0.00 0.00 0.00 27 1013.0
20260506141304 68 338 2.0 6.0 0.00 0.00 0.00 25 1012.9
20260506140603 67 254 1.0 3.0 0.00 0.00 0.00 26 1012.9
20260506135901 66 269 3.0 5.0 0.00 0.00 0.00 25 1012.7
20260506135211 67 13 6.0 7.0 0.00 0.00 0.00 26 1012.8
20260506134508 61 334 2.0 7.0 0.00 0.00 0.00 29 1012.7
20260506133806 55 19 3.0 6.0 0.00 0.00 0.00 31 1012.8
20260506133104 55 304 5.0 5.0 0.00 0.00 0.00 30 1012.8
20260506132402 53 251 2.0 2.0 0.00 0.00 0.00 31 1012.9
20260506131712 53 308 3.0 6.0 0.00 0.00 0.00 33 1012.8
20260506131009 53 248 3.0 6.0 0.00 0.00 0.00 31 1012.7
20260506130307 54 334 1.0 3.0 0.00 0.00 0.00 31 1012.7
20260506125603 56 265 5.0 9.0 0.00 0.00 0.00 29 1012.8
20260506124913 61 265 5.0 8.0 0.00 0.00 0.00 27 1012.7
20260506124211 60 14 2.0 2.0 0.00 0.00 0.00 29 1012.8
20260506123508 61 321 2.0 9.0 0.00 0.00 0.00 27 1012.9
20260506122806 66 20 3.0 8.0 0.00 0.00 0.00 27 1012.9
20260506122104 67 250 5.0 12.0 0.00 0.00 0.00 27 1012.8
20260506121413 66 314 3.0 3.0 0.00 0.00 0.00 27 1012.8
20260506120711 64 13 5.0 9.0 0.00 0.00 0.00 28 1012.8
20260506120008 63 279 8.0 10.0 0.00 0.00 0.00 27 1012.9
20260506115307 64 304 3.0 12.0 0.00 0.00 0.00 27 1012.9
20260506114603 64 267 2.0 6.0 0.00 0.00 0.00 28 1012.8
20260506113912 63 276 2.0 8.0 0.00 0.00 0.00 28 1012.7
20260506113210 61 274 6.0 10.0 0.00 0.00 0.00 28 1012.7
20260506112507 60 3 6.0 17.0 0.00 0.00 0.00 26 1012.8
20260506111805 62 255 10.0 20.0 0.00 0.00 0.00 25 1012.6
20260506111103 61 249 6.0 9.0 0.00 0.00 0.00 28 1012.5
20260506110412 59 248 3.0 3.0 0.00 0.00 0.00 29 1012.4